COSMOS 1275 DEB, 12704

Orbit data source: Space-Track

COSMOS 1275 DEB, 12704 is space debris in LEO originally from a launch on Thu, 04 Jun 1981 UTC launched from the Plesetsk Missile And Space Complex (PKMTR). Debris objects in space refer to the collection of defunct objects orbiting the Earth. Examples of debris include non-operational satellites, rocket bodies, and fragments generated from explosions, collisions, or faulty payload assembly.

Loading next visibility...
Identifier
12704, 1981-053AY
Orbit
LEO
Country
Flag of CISCIS
Related business
Manufacturer
Unknown
Mission
Spacecraft
Bus & Motor
Unknown
Mass
Unknown
Launch date (UTC)
1981-06-04 (45 years ago)
Launch vehicle
Unknown
Launch site
Plesetsk Missile And Space Complex (PKMTR)
Object type
Payload
Rocket body
Debris
Shape & HBR
Unknown shape, 0.1 m
Radar Cross Section
Small (<0.1 m²)

Expand to show TLE details & history
Last TLE update: 18 hours ago

TLE from 18 hours ago
0 COSMOS 1275 DEB
1 12704U 81053AY  25349.81082907  .00000350  00000-0  36537-3 0  9994
2 12704  82.9890 263.8056 0083768 130.5590 286.4516 13.71005534212092
Epoch: 2025-12-15T19:27Z
TLE epoch observation values (Epoch: 2025-12-15T19:27:35.631Z)
Latitude
55.55213°
Longitude
-102.52299°
Altitude
988.169 km
Speed
7.371 km/s
True Right ascension
18h 16m 19s
True Declination
55° 23' 48"
Sunlit
Object was in daylight at epoch
Visualization orbit readout
Latitude
Unknown
Longitude
Unknown
Altitude
Unknown
Speed
Unknown
Apparent Right ascension
Unknown
Apparent Declination
Unknown
Sunlit
N/A
Visualization observer readout
Local Sidereal Time
12:37:56
Azimuth
Unknown
Elevation
Unknown
Doppler factor
Unknown
Orbital elements
Apogee altitude
1,054.863 km
Perigee altitude
931.368 km
Semi-major axis
7,371.253 km
Eccentricity
0.00838
Inclination
82.989°
RAAN
263.8056°
Arg. of periapsis
130.559°
True anomaly
285.52829°
Mean anomaly
286.4516°
Eccentric anomaly
285.99021°
Mean motion
3.4295 °/min
Orbital period
104.97 mins
BSTAR
0.00036537
Loading maneuver chart data...
Computing Atmospheric mass density...
Loading historical data...
Loading historical data...
Loading historical data...
Loading historical data...
Loading historical data...
Loading historical data...
Loading historical data...

Documentation

Showing up to 5 results
|